TimeCDT,TemperatureF,Dew PointF,Humidity,Sea Level PressureIn,VisibilityMPH,Wind Direction,Wind SpeedMPH,Gust SpeedMPH,PrecipitationIn,Events,Conditions,WindDirDegrees,DateUTC
12:15 AM,74.7,67.3,78,29.96,10.0,Calm,Calm,-,N/A,,Clear,0,2013-07-10 05:15:00
12:35 AM,73.9,67.3,80,29.96,10.0,NNW,3.5,-,N/A,,Clear,340,2013-07-10 05:35:00
12:55 AM,72.7,67.1,83,29.96,10.0,NNW,4.6,-,N/A,,Clear,340,2013-07-10 05:55:00
1:15 AM,71.6,66.7,85,29.96,10.0,NNW,6.9,-,N/A,,Clear,340,2013-07-10 06:15:00
1:35 AM,70.9,66.7,87,29.96,10.0,NNW,3.5,-,N/A,,Clear,330,2013-07-10 06:35:00
1:55 AM,70.0,66.2,88,29.96,10.0,NNW,4.6,-,N/A,,Clear,340,2013-07-10 06:55:00
2:15 AM,69.8,66.2,88,29.96,10.0,NNW,4.6,-,N/A,,Clear,330,2013-07-10 07:15:00
2:35 AM,69.1,66.2,91,29.97,10.0,NW,3.5,-,N/A,,Clear,320,2013-07-10 07:35:00
2:55 AM,69.6,66.4,89,29.98,10.0,NNW,5.8,-,N/A,,Clear,330,2013-07-10 07:55:00
3:15 AM,69.6,66.0,88,29.99,10.0,WNW,4.6,-,N/A,,Clear,300,2013-07-10 08:15:00
3:35 AM,69.4,65.8,88,29.99,10.0,NW,5.8,-,N/A,,Clear,310,2013-07-10 08:35:00
3:55 AM,69.6,65.1,86,30.00,10.0,NNW,8.1,-,N/A,,Clear,330,2013-07-10 08:55:00
4:15 AM,69.3,63.7,82,30.00,10.0,NNW,12.7,18.4,N/A,,Clear,340,2013-07-10 09:15:00
4:35 AM,68.7,63.5,83,30.00,10.0,NW,8.1,-,N/A,,Clear,320,2013-07-10 09:35:00
4:55 AM,68.2,62.8,83,30.00,10.0,NNW,13.8,19.6,N/A,,Clear,330,2013-07-10 09:55:00
5:15 AM,67.6,62.6,84,30.00,10.0,NNW,9.2,-,N/A,,Clear,330,2013-07-10 10:15:00
5:35 AM,66.9,62.4,85,30.01,10.0,NNW,11.5,-,N/A,,Clear,340,2013-07-10 10:35:00
5:55 AM,66.4,62.6,88,30.01,10.0,NNW,11.5,16.1,N/A,,Clear,330,2013-07-10 10:55:00
6:15 AM,66.2,62.2,87,30.01,10.0,NNW,13.8,-,N/A,,Clear,330,2013-07-10 11:15:00
6:35 AM,66.2,62.2,87,30.02,10.0,NNW,9.2,-,N/A,,Clear,330,2013-07-10 11:35:00
6:55 AM,66.4,62.1,86,30.03,10.0,NW,9.2,-,N/A,,Clear,320,2013-07-10 11:55:00
7:15 AM,66.7,61.3,83,30.04,10.0,NNW,12.7,16.1,N/A,,Clear,330,2013-07-10 12:15:00
7:35 AM,67.1,60.4,79,30.04,10.0,NNW,15.0,-,N/A,,Clear,340,2013-07-10 12:35:00
7:55 AM,67.5,59.9,77,30.04,10.0,NNW,15.0,-,N/A,,Clear,340,2013-07-10 12:55:00
8:15 AM,68.0,59.7,75,30.05,10.0,NNW,12.7,20.7,N/A,,Clear,340,2013-07-10 13:15:00
8:35 AM,68.5,58.8,71,30.05,10.0,NNW,11.5,19.6,N/A,,Clear,340,2013-07-10 13:35:00
8:55 AM,69.1,58.3,68,30.06,10.0,NNW,13.8,19.6,N/A,,Clear,340,2013-07-10 13:55:00
9:15 AM,69.3,56.7,64,30.06,10.0,North,16.1,-,N/A,,Clear,350,2013-07-10 14:15:00
9:35 AM,70.5,56.5,61,30.06,10.0,North,16.1,21.9,N/A,,Clear,350,2013-07-10 14:35:00
9:55 AM,71.1,54.9,56,30.06,10.0,North,15.0,-,N/A,,Clear,360,2013-07-10 14:55:00
10:15 AM,71.1,54.3,55,30.06,10.0,North,13.8,20.7,N/A,,Clear,350,2013-07-10 15:15:00
10:35 AM,71.6,54.7,55,30.06,10.0,North,17.3,21.9,N/A,,Clear,350,2013-07-10 15:35:00
10:55 AM,72.7,55.4,55,30.06,10.0,North,13.8,19.6,N/A,,Clear,350,2013-07-10 15:55:00
11:15 AM,72.9,55.2,54,30.06,10.0,North,12.7,18.4,N/A,,Clear,10,2013-07-10 16:15:00
11:35 AM,74.3,55.6,52,30.07,10.0,North,9.2,18.4,N/A,,Clear,360,2013-07-10 16:35:00
11:55 AM,74.3,52.7,47,30.07,10.0,North,10.4,-,N/A,,Clear,10,2013-07-10 16:55:00
12:15 PM,74.8,53.4,47,30.08,10.0,North,10.4,16.1,N/A,,Clear,10,2013-07-10 17:15:00
12:35 PM,75.4,52.7,45,30.08,10.0,North,10.4,-,N/A,,Clear,360,2013-07-10 17:35:00
12:55 PM,76.5,53.1,44,30.09,10.0,North,10.4,16.1,N/A,,Clear,360,2013-07-10 17:55:00
1:15 PM,76.6,52.2,42,30.09,10.0,North,10.4,-,N/A,,Clear,350,2013-07-10 18:15:00
1:35 PM,77.0,53.4,44,30.09,10.0,NE,8.1,-,N/A,,Clear,40,2013-07-10 18:35:00
1:55 PM,77.0,52.5,42,30.09,10.0,SE,3.5,-,N/A,,Clear,130,2013-07-10 18:55:00
2:15 PM,77.7,54.3,44,30.08,10.0,North,8.1,-,N/A,,Clear,360,2013-07-10 19:15:00
2:35 PM,78.1,50.9,39,30.08,10.0,NNW,10.4,-,N/A,,Clear,340,2013-07-10 19:35:00
2:55 PM,78.6,51.8,39,30.08,10.0,NNW,6.9,-,N/A,,Clear,340,2013-07-10 19:55:00
3:15 PM,79.2,52.3,39,30.08,10.0,NW,4.6,-,N/A,,Clear,320,2013-07-10 20:15:00
3:35 PM,79.7,52.2,38,30.08,10.0,NW,10.4,-,N/A,,Clear,320,2013-07-10 20:35:00
3:55 PM,79.9,51.8,38,30.07,10.0,NNE,4.6,-,N/A,,Clear,20,2013-07-10 20:55:00
4:15 PM,80.4,51.6,37,30.07,10.0,NNW,4.6,-,N/A,,Clear,330,2013-07-10 21:15:00
4:35 PM,80.1,51.4,37,30.06,10.0,North,5.8,-,N/A,,Clear,10,2013-07-10 21:35:00
4:55 PM,80.6,52.0,37,30.06,10.0,WNW,5.8,-,N/A,,Clear,300,2013-07-10 21:55:00
5:15 PM,80.6,52.0,37,30.06,10.0,NW,5.8,-,N/A,,Clear,320,2013-07-10 22:15:00
5:35 PM,80.6,52.3,37,30.05,10.0,NW,8.1,-,N/A,,Clear,320,2013-07-10 22:35:00
5:55 PM,80.1,52.2,38,30.04,10.0,NNW,5.8,-,N/A,,Clear,340,2013-07-10 22:55:00
6:15 PM,79.9,52.5,39,30.04,10.0,NNW,8.1,-,N/A,,Clear,340,2013-07-10 23:15:00
6:35 PM,79.7,54.7,42,30.04,10.0,NNW,8.1,-,N/A,,Clear,340,2013-07-10 23:35:00
6:55 PM,79.0,53.1,40,30.04,10.0,NNW,6.9,-,N/A,,Clear,340,2013-07-10 23:55:00
7:15 PM,78.8,54.5,43,30.04,10.0,NNW,5.8,-,N/A,,Clear,330,2013-07-11 00:15:00
7:35 PM,77.2,56.1,48,30.03,10.0,NNW,4.6,-,N/A,,Clear,340,2013-07-11 00:35:00
7:55 PM,75.7,57.7,53,30.03,10.0,NNW,3.5,-,N/A,,Clear,340,2013-07-11 00:55:00
8:15 PM,74.5,59.4,59,30.03,10.0,NNW,3.5,-,N/A,,Clear,330,2013-07-11 01:15:00
8:35 PM,72.3,60.8,67,30.03,10.0,NNW,3.5,-,N/A,,Clear,330,2013-07-11 01:35:00
8:55 PM,71.2,60.8,69,30.04,10.0,Calm,Calm,-,N/A,,Clear,0,2013-07-11 01:55:00
9:15 PM,70.3,60.6,71,30.04,10.0,NNW,3.5,-,N/A,,Clear,340,2013-07-11 02:15:00
9:35 PM,68.9,60.4,74,30.04,10.0,NNW,3.5,-,N/A,,Clear,340,2013-07-11 02:35:00
9:55 PM,68.2,60.3,76,30.05,10.0,Calm,Calm,-,N/A,,Clear,0,2013-07-11 02:55:00
10:15 PM,67.5,60.1,77,30.05,10.0,NW,3.5,-,N/A,,Clear,320,2013-07-11 03:15:00
10:35 PM,66.2,59.2,78,30.06,10.0,Calm,Calm,-,N/A,,Clear,0,2013-07-11 03:35:00
10:55 PM,65.7,59.4,80,30.07,10.0,Calm,Calm,-,N/A,,Clear,0,2013-07-11 03:55:00
11:15 PM,65.8,59.0,79,30.08,10.0,Calm,Calm,-,N/A,,Clear,0,2013-07-11 04:15:00
11:35 PM,65.3,59.2,81,30.08,10.0,Calm,Calm,-,N/A,,Clear,0,2013-07-11 04:35:00
11:55 PM,65.1,59.0,81,30.09,10.0,NNW,3.5,-,N/A,,Clear,330,2013-07-11 04:55:00